HST
1 20580U 90037B   24175.69554143  .00005514  00000-0  25572-3 0  9999
2 20580  28.4695 301.5256 0003043 103.4081 256.6851 15.17831856678021
ISS (ZARYA)
1 25544U 98067A   24176.37742947  .00017246  00000-0  31221-3 0  9995
2 25544  51.6415 279.6692 0010792   1.9083 110.8234 15.49700375459665
CXO
1 25867U 99040B   24178.44049557  .00000550  00000-0  00000+0 0  9999
2 25867  41.3050 153.0818 8879926 296.9350   0.2825  0.37804308 25751